GW4179 Weather Reports


Display with metric or nautical units.
time (UTC)temp
F
wind
direction
speed
MPH
gust
MPH
rain 1hr
in
rain 24hr
in
rain mn
in
humidity
%
barometer
mb
20260507221748 54 246 10.0 17.0 0.00 0.01 0.01 47
20260507221243 55 220 2.0 10.0 0.00 0.01 0.01 48
20260507220740 53 264 4.0 11.0 0.00 0.01 0.01 49
20260507220239 53 275 6.0 10.0 0.00 0.01 0.01 50
20260507215734 54 206 3.0 6.0 0.00 0.01 0.01 50
20260507215232 54 232 4.0 11.0 0.00 0.01 0.01 49
20260507214729 54 281 4.0 7.0 0.00 0.01 0.01 49
20260507214226 55 192 4.0 9.0 0.00 0.01 0.01 49
20260507213721 54 263 8.0 17.0 0.00 0.01 0.01 48
20260507213219 55 265 6.0 14.0 0.00 0.01 0.01 47
20260507212714 55 286 9.0 20.0 0.00 0.01 0.01 46
20260507212211 56 260 9.0 19.0 0.00 0.01 0.01 46
20260507211708 57 265 5.0 10.0 0.00 0.01 0.01 47
20260507211204 57 255 7.0 16.0 0.00 0.01 0.01 45
20260507210701 57 258 6.0 11.0 0.00 0.01 0.01 46
20260507210158 56 262 10.0 14.0 0.00 0.01 0.01 46
20260507205654 57 254 3.0 19.0 0.00 0.01 0.01 46
20260507205151 56 196 3.0 7.0 0.00 0.01 0.01 48
20260507204647 56 242 6.0 9.0 0.00 0.01 0.01 49
20260507204145 58 250 6.0 11.0 0.00 0.01 0.01 46
20260507203643 56 255 9.0 11.0 0.00 0.01 0.01 47
20260507203140 57 259 3.0 9.0 0.00 0.01 0.01 47
20260507202636 57 272 7.0 10.0 0.00 0.01 0.01 47
20260507202132 57 220 5.0 9.0 0.00 0.01 0.01 47
20260507201627 56 215 4.0 6.0 0.00 0.01 0.01 47
20260507201125 56 273 3.0 6.0 0.00 0.01 0.01 49
20260507200620 54 266 3.0 7.0 0.00 0.01 0.01 50
20260507200116 55 312 8.0 14.0 0.00 0.01 0.01 48
20260507195614 54 282 12.0 19.0 0.00 0.01 0.01 49
20260507195111 55 273 8.0 16.0 0.00 0.01 0.01 49
20260507194607 55 260 6.0 7.0 0.00 0.01 0.01 48
20260507194103 55 235 3.0 10.0 0.00 0.01 0.01 49
20260507193600 55 284 5.0 7.0 0.00 0.01 0.01 48
20260507193057 56 270 6.0 11.0 0.00 0.01 0.01 48
20260507192553 55 329 4.0 10.0 0.00 0.01 0.01 50
20260507192050 56 202 4.0 13.0 0.00 0.01 0.01 47
20260507191546 56 216 5.0 13.0 0.00 0.01 0.01 53
20260507191043 56 176 4.0 7.0 0.00 0.01 0.01 48
20260507190540 56 291 8.0 11.0 0.00 0.01 0.01 48
20260507190039 57 243 6.0 10.0 0.00 0.01 0.01 47
20260507185537 55 217 2.0 10.0 0.00 0.01 0.01 51
20260507185033 55 201 2.0 9.0 0.00 0.01 0.01 49
20260507184532 54 223 6.0 10.0 0.00 0.01 0.01 50
20260507184029 56 252 15.0 17.0 0.00 0.01 0.01 47
20260507183525 55 257 9.0 17.0 0.00 0.01 0.01 49
20260507183022 55 246 3.0 10.0 0.00 0.01 0.01 51
20260507182518 54 272 6.0 9.0 0.00 0.01 0.01 51
20260507182014 54 220 4.0 11.0 0.00 0.01 0.01 51
20260507181511 55 260 9.0 13.0 0.00 0.01 0.01 50
20260507181008 54 262 9.0 14.0 0.00 0.01 0.01 49
20260507180504 55 277 8.0 11.0 0.00 0.01 0.01 52
20260507180000 55 214 5.0 9.0 0.00 0.01 0.01 51
20260507175457 54 257 2.0 7.0 0.00 0.01 0.01 51
20260507174955 55 189 2.0 7.0 0.00 0.01 0.01 50
20260507174452 55 307 9.0 10.0 0.00 0.01 0.01 53
20260507173949 54 252 10.0 13.0 0.00 0.01 0.01 53
20260507173446 54 238 4.0 17.0 0.00 0.01 0.01 54
20260507172943 55 283 7.0 11.0 0.00 0.01 0.01 53
20260507172439 55 260 2.0 6.0 0.00 0.01 0.01 51
20260507171936 55 221 5.0 10.0 0.00 0.01 0.01 53
20260507171432 53 194 1.0 4.0 0.00 0.01 0.01 53
20260507170929 54 177 5.0 7.0 0.00 0.01 0.01 52
20260507170426 54 205 3.0 7.0 0.00 0.01 0.01 53
20260507165922 53 231 5.0 7.0 0.00 0.01 0.01 53
20260507165418 53 192 5.0 7.0 0.00 0.01 0.01 53
20260507164914 52 249 4.0 11.0 0.00 0.01 0.01 53
20260507164412 53 306 4.0 7.0 0.00 0.01 0.01 56
20260507163909 53 193 2.0 4.0 0.00 0.01 0.01 55
20260507163406 53 189 4.0 10.0 0.00 0.01 0.01 58
20260507162902 53 251 5.0 11.0 0.00 0.01 0.01 55
20260507162357 52 246 3.0 9.0 0.00 0.01 0.01 58
20260507161855 51 163 3.0 7.0 0.00 0.01 0.01 57
20260507161351 52 210 5.0 7.0 0.00 0.01 0.01 58
20260507160848 52 237 4.0 9.0 0.00 0.01 0.01 55
20260507160343 52 179 2.0 11.0 0.00 0.01 0.01 59
20260507155840 52 258 4.0 10.0 0.00 0.01 0.01 58
20260507155336 52 319 6.0 9.0 0.00 0.01 0.01 58
20260507154833 51 269 5.0 7.0 0.00 0.01 0.01 61
20260507154330 52 254 4.0 11.0 0.00 0.01 0.01 60
20260507153827 51 220 1.0 6.0 0.00 0.01 0.01 60
20260507153323 52 266 6.0 10.0 0.00 0.01 0.01 60
20260507152820 51 274 2.0 6.0 0.00 0.01 0.01 61
20260507152316 51 240 7.0 11.0 0.00 0.01 0.01 57
20260507151812 50 268 4.0 6.0 0.00 0.01 0.01 60
20260507151309 50 269 9.0 13.0 0.00 0.01 0.01 59
20260507150806 50 252 4.0 14.0 0.00 0.01 0.01 60
20260507150302 51 171 3.0 6.0 0.00 0.01 0.01 60
20260507145759 51 268 3.0 7.0 0.00 0.01 0.01 58
20260507145255 50 272 4.0 7.0 0.00 0.01 0.01 59
20260507144753 50 231 4.0 7.0 0.00 0.01 0.01 61
20260507144250 50 221 6.0 7.0 0.00 0.01 0.01 65
20260507143746 50 281 6.0 9.0 0.00 0.01 0.01 64
20260507143244 49 236 3.0 6.0 0.00 0.01 0.01 61
20260507142739 49 216 3.0 4.0 0.00 0.01 0.01 65
20260507142236 49 277 4.0 11.0 0.00 0.01 0.01 64
20260507141732 48 255 7.0 10.0 0.00 0.01 0.01 65
20260507141230 48 204 1.0 6.0 0.00 0.01 0.01 67
20260507140725 48 262 4.0 9.0 0.00 0.01 0.01 68
20260507140224 47 205 1.0 4.0 0.00 0.01 0.01 70
20260507135720 46 264 6.0 10.0 0.00 0.01 0.01 71
20260507135218 47 210 3.0 11.0 0.00 0.01 0.01 71
20260507134714 47 209 1.0 3.0 0.00 0.01 0.01 74
20260507134210 46 251 5.0 6.0 0.00 0.01 0.01 73
20260507133706 46 258 5.0 7.0 0.00 0.01 0.01 72
20260507133203 45 245 4.0 6.0 0.00 0.01 0.01 75
20260507132700 45 227 2.0 4.0 0.00 0.01 0.01 77
20260507132157 45 249 2.0 4.0 0.00 0.01 0.01 78
20260507131654 45 203 3.0 4.0 0.00 0.01 0.01 76
20260507131151 45 189 0.0 1.0 0.00 0.01 0.01 78
20260507130647 44 251 3.0 6.0 0.00 0.01 0.01 77
20260507130145 44 215 2.0 4.0 0.00 0.01 0.01 78
20260507125644 43 210 0.0 1.0 0.00 0.01 0.01 78
20260507125142 43 240 2.0 3.0 0.00 0.01 0.01 81
20260507124637 43 192 0.0 1.0 0.00 0.01 0.01 81
20260507124135 43 175 0.0 0.0 0.00 0.01 0.01 79
20260507123633 43 187 0.0 1.0 0.00 0.01 0.01 77
20260507123130 43 212 2.0 3.0 0.00 0.01 0.01 78
20260507122625 43 194 0.0 1.0 0.00 0.01 0.01 78
20260507122121 43 196 0.0 0.0 0.00 0.01 0.01 79
20260507121617 43 219 2.0 3.0 0.00 0.01 0.01 75
20260507121113 43 198 0.0 1.0 0.00 0.01 0.01 78
20260507120609 43 195 1.0 1.0 0.00 0.01 0.01 81
20260507120107 42 193 1.0 1.0 0.00 0.01 0.01 81
20260507115603 42 189 0.0 1.0 0.00 0.01 0.01 81
20260507115059 42 189 0.0 0.0 0.00 0.01 0.01 82
20260507114555 42 189 0.0 0.0 0.00 0.01 0.01 82
20260507114052 41 189 0.0 0.0 0.00 0.01 0.01 84
20260507113549 41 189 0.0 0.0 0.00 0.01 0.01 90
20260507113046 41 189 0.0 0.0 0.00 0.01 0.01 92
20260507112544 41 189 0.0 0.0 0.00 0.01 0.01 93
20260507112040 41 189 0.0 0.0 0.00 0.01 0.01 92
20260507111538 41 189 0.0 0.0 0.00 0.01 0.01 92
20260507111034 41 189 0.0 0.0 0.00 0.01 0.01 93
20260507110531 41 190 0.0 1.0 0.00 0.01 0.01 93
20260507110027 41 189 0.0 0.0 0.00 0.01 0.01 94
20260507105525 41 190 0.0 0.0 0.00 0.01 0.01 95
20260507105020 41 190 0.0 1.0 0.00 0.01 0.01 97
20260507104518 41 187 0.0 1.0 0.00 0.01 0.01 98
20260507104015 41 162 0.0 0.0 0.00 0.01 0.01 98
20260507103505 41 165 0.0 0.0 0.00 0.01 0.01 98
20260507103001 41 165 0.0 0.0 0.00 0.01 0.01 98
20260507102458 41 163 0.0 0.0 0.00 0.01 0.01 98
20260507101954 41 171 1.0 1.0 0.00 0.01 0.01 99
20260507101449 41 188 0.0 0.0 0.00 0.01 0.01 99
20260507100946 42 163 0.0 0.0 0.00 0.01 0.01 99
20260507100443 42 174 0.0 1.0 0.00 0.01 0.01 99
20260507095942 42 164 0.0 1.0 0.00 0.01 0.01 99
20260507095438 42 167 0.0 0.0 0.00 0.01 0.01 99
20260507094935 42 187 0.0 0.0 0.00 0.01 0.01 99
20260507094431 42 187 0.0 0.0 0.00 0.01 0.01 99
20260507093929 42 187 0.0 0.0 0.00 0.01 0.01 99
20260507093427 42 190 0.0 0.0 0.00 0.01 0.01 99
20260507092925 42 186 0.0 0.0 0.00 0.01 0.01 99
20260507092421 42 192 0.0 1.0 0.00 0.01 0.01 99
20260507091917 42 180 0.0 0.0 0.00 0.01 0.01 99
20260507091414 42 180 0.0 0.0 0.00 0.01 0.01 99
20260507090910 42 180 0.0 0.0 0.00 0.01 0.01 99
20260507090406 42 189 0.0 0.0 0.00 0.01 0.01 99
20260507085903 42 189 0.0 0.0 0.00 0.01 0.01 98
20260507085400 42 189 0.0 0.0 0.00 0.01 0.01 98
20260507084857 42 193 0.0 0.0 0.00 0.01 0.01 98
20260507084354 42 179 0.0 0.0 0.00 0.01 0.01 98
20260507083851 42 179 0.0 0.0 0.00 0.01 0.01 98
20260507083347 42 179 0.0 0.0 0.00 0.01 0.01 98
20260507082844 42 179 0.0 0.0 0.00 0.01 0.01 98
20260507082339 42 190 0.0 0.0 0.00 0.01 0.01 98
20260507081837 42 190 0.0 0.0 0.00 0.01 0.01 98
20260507081332 42 231 3.0 3.0 0.00 0.01 0.01 98
20260507080830 42 191 0.0 1.0 0.00 0.01 0.01 99
20260507080326 42 192 0.0 1.0 0.00 0.01 0.01 99
20260507075821 42 199 1.0 1.0 0.00 0.01 0.01 99
20260507075317 42 181 1.0 3.0 0.00 0.01 0.01 99
20260507074814 42 166 2.0 4.0 0.00 0.01 0.01 99
20260507074312 42 215 3.0 4.0 0.07 0.01 0.01 99
20260507073809 43 189 2.0 3.0 0.07 0.01 0.01 99
20260507073305 44 119 2.0 4.0 0.00 0.00 0.00 99
20260507072802 44 164 0.0 1.0 0.00 0.00 0.00 99
20260507072300 45 207 1.0 3.0 0.00 0.00 0.00 99
20260507071757 45 199 1.0 3.0 0.00 0.00 0.00 99
20260507071253 45 192 0.0 1.0 0.00 0.00 0.00 99
20260507070750 45 216 2.0 3.0 0.00 0.00 0.00 99
20260507070247 45 192 0.0 0.0 0.00 0.00 0.00 99
20260507065744 45 192 0.0 0.0 0.00 0.00 0.00 99
20260507065241 45 197 0.0 0.0 0.00 0.00 0.00 99
20260507064738 45 198 0.0 1.0 0.00 0.00 0.00 99
20260507064237 45 199 0.0 1.0 0.00 0.00 0.00 99
20260507063734 44 198 0.0 1.0 0.00 0.00 0.00 99
20260507063230 44 192 0.0 1.0 0.00 0.00 0.00 99
20260507062727 45 182 0.0 0.0 0.00 0.00 0.00 99
20260507062225 45 169 0.0 0.0 0.00 0.00 0.00 99
20260507061723 45 177 0.0 1.0 0.00 0.00 0.00 99
20260507061221 44 167 0.0 0.0 0.00 0.00 0.00 99
20260507060719 45 204 1.0 3.0 0.00 0.00 0.00 99
20260507060215 45 167 0.0 0.0 0.00 0.00 0.00 99
20260507055711 45 174 0.0 0.0 0.00 0.00 0.00 99
20260507055207 45 201 1.0 1.0 0.00 0.00 0.00 99
20260507054703 45 191 0.0 0.0 0.00 0.00 0.00 99
20260507054200 45 201 1.0 3.0 0.00 0.00 0.00 99
20260507053658 45 212 1.0 1.0 0.00 0.00 0.00 99
20260507053155 44 192 0.0 1.0 0.00 0.00 0.00 99
20260507052654 44 192 0.0 1.0 0.00 0.00 0.00 99
20260507052149 44 188 0.0 1.0 0.00 0.00 0.00 99
20260507051647 44 200 0.0 1.0 0.00 0.00 0.00 99
20260507051144 44 192 0.0 1.0 0.00 0.00 0.00 99
20260507050641 45 197 0.0 0.0 0.00 0.00 0.00 99
20260507050137 44 194 0.0 1.0 0.00 0.00 0.00 99
20260507045634 44 197 0.0 3.0 0.00 0.00 0.00 99
20260507045126 44 210 1.0 1.0 0.00 0.00 0.00 99
20260507044623 44 207 2.0 3.0 0.00 0.00 0.00 99
20260507044120 44 192 0.0 0.0 0.00 0.00 0.00 99
20260507043616 44 192 1.0 1.0 0.00 0.00 0.00 99
20260507043113 44 188 0.0 1.0 0.00 0.00 0.00 99
20260507042608 44 194 0.0 1.0 0.00 0.00 0.00 99
20260507042103 44 193 0.0 1.0 0.00 0.00 0.00 99
20260507041600 44 188 1.0 1.0 0.00 0.00 0.00 99
20260507041058 44 166 0.0 0.0 0.00 0.00 0.00 99
20260507040554 44 161 0.0 1.0 0.00 0.00 0.00 99
20260507040050 44 70 1.0 3.0 0.00 0.50 0.50 99
20260507035547 44 170 0.0 1.0 0.00 0.50 0.50 99
20260507035043 44 185 0.0 3.0 0.00 0.50 0.50 99
20260507034540 44 199 0.0 1.0 0.07 0.50 0.50 99
20260507034038 45 168 0.0 0.0 0.07 0.50 0.50 99
20260507033535 45 188 0.0 1.0 0.00 0.49 0.49 99
20260507033032 45 182 0.0 3.0 0.00 0.49 0.49 99
20260507032529 45 182 1.0 3.0 0.00 0.49 0.49 99
20260507032025 45 158 2.0 3.0 0.00 0.49 0.49 99
20260507031521 45 134 0.0 1.0 0.00 0.49 0.49 99
20260507031019 45 177 0.0 1.0 0.00 0.49 0.49 99
20260507030516 45 95 2.0 3.0 0.00 0.49 0.49 99
20260507030009 46 249 2.0 3.0 0.05 0.49 0.49 99
20260507025505 46 155 1.0 1.0 0.05 0.49 0.49 99
20260507025003 46 158 0.0 0.0 0.07 0.48 0.48 99
20260507024500 46 162 0.0 0.0 0.12 0.48 0.48 99
20260507023956 46 199 2.0 3.0 0.05 0.47 0.47 99
20260507023453 46 200 1.0 4.0 0.00 0.46 0.46 99
20260507022950 46 178 2.0 3.0 0.00 0.46 0.46 99
20260507022447 46 186 1.0 3.0 0.00 0.46 0.46 99
20260507021942 46 176 3.0 3.0 0.00 0.46 0.46 99
20260507021438 46 205 1.0 3.0 0.00 0.46 0.46 99
20260507020936 46 193 2.0 3.0 0.00 0.46 0.46 99
20260507020432 46 186 1.0 4.0 0.00 0.46 0.46 99
20260507015929 46 185 1.0 3.0 0.00 0.46 0.46 99
20260507015427 46 189 0.0 1.0 0.00 0.46 0.46 99
20260507014924 46 157 1.0 1.0 0.00 0.46 0.46 99
20260507014420 46 212 2.0 3.0 0.00 0.46 0.46 99
20260507013917 47 192 1.0 3.0 0.00 0.46 0.46 99
20260507013414 47 172 1.0 4.0 0.07 0.46 0.46 99
20260507012912 47 334 4.0 4.0 0.07 0.46 0.46 99
20260507012408 48 128 2.0 3.0 0.00 0.45 0.45 99
20260507011905 48 193 1.0 3.0 0.00 0.45 0.45 99
20260507011401 48 192 1.0 1.0 0.00 0.45 0.45 99
20260507010901 48 197 0.0 3.0 0.00 0.45 0.45 99
20260507010351 48 194 0.0 1.0 0.00 0.45 0.45 99
20260507005848 48 200 1.0 3.0 0.00 0.45 0.45 99
20260507005345 48 199 1.0 3.0 0.00 0.45 0.45 99
20260507004836 48 287 2.0 6.0 0.00 0.45 0.45 99
20260507004333 48 1 4.0 4.0 0.00 0.45 0.45 99
20260507003831 48 202 2.0 4.0 0.00 0.45 0.45 99
20260507003326 48 205 3.0 3.0 0.00 0.45 0.45 99
20260507002820 48 191 0.0 1.0 0.00 0.45 0.45 99
20260507002317 48 186 0.0 3.0 0.00 0.45 0.45 99
20260507001809 48 200 0.0 4.0 0.00 0.45 0.45 99
20260507001306 48 196 0.0 1.0 0.00 0.45 0.45 99
20260507000802 48 201 2.0 4.0 0.00 0.45 0.45 99
20260507000258 48 223 3.0 6.0 0.00 0.45 0.45 99
20260506235749 48 204 2.0 3.0 0.00 0.45 0.45 99
20260506235244 48 146 0.0 1.0 0.00 0.45 0.45 99
20260506234742 48 191 1.0 3.0 0.00 0.45 0.45 99
20260506234239 48 195 1.0 1.0 0.00 0.45 0.45 99
20260506233737 48 221 2.0 3.0 0.00 0.45 0.45 99
20260506233233 49 250 5.0 9.0 0.00 0.45 0.45 99
20260506232730 48 202 2.0 9.0 0.00 0.45 0.45 99
20260506232224 49 206 2.0 9.0 0.00 0.45 0.45 99
20260506231722 49 202 3.0 4.0 0.00 0.45 0.45 99
20260506231220 49 219 3.0 4.0 0.00 0.45 0.45 99
20260506230716 49 323 4.0 4.0 0.00 0.45 0.45 99
20260506230214 49 42 1.0 4.0 0.00 0.45 0.45 98
20260506225710 49 235 3.0 4.0 0.00 0.45 0.45 98
20260506225207 49 232 3.0 6.0 0.00 0.45 0.45 98
20260506224703 50 190 2.0 6.0 0.00 0.45 0.45 98
20260506224201 50 317 5.0 7.0 0.00 0.45 0.45 98
20260506223657 50 188 1.0 4.0 0.00 0.45 0.45 98
20260506223153 50 253 4.0 4.0 0.00 0.45 0.45 98
20260506222650 50 212 0.0 3.0 0.00 0.45 0.45 98
20260506222145 50 206 1.0 3.0 0.00 0.45 0.45 98